OE3MHU-12 Weather Reports


Display with metric or nautical units.
time (UTC)temp
F
wind
direction
speed
MPH
gust
MPH
rain 1hr
in
rain 24hr
in
rain mn
in
humidity
%
barometer
mb
20260505085536 73 125 1.0 6.0 0.00 0.00 0.00 44 1006.3
20260505082842 71 77 1.0 4.0 0.00 0.00 0.00 44 1006.8
20260505082536 71 77 1.0 4.0 0.00 0.00 0.00 44 1006.8
20260505075537 68 145 0.0 2.0 0.00 0.00 0.00 49 1007.0
20260505072537 65 311 0.0 1.0 0.00 0.00 0.00 55 1007.2
20260505065537 62 350 0.0 2.0 0.00 0.00 0.00 58 1007.5
20260505062537 58 350 0.0 1.0 0.00 0.00 0.00 63 1007.7
20260505055537 53 350 0.0 0.0 0.00 0.00 0.00 72 1007.9
20260505052537 47 350 0.0 0.0 0.00 0.00 0.00 80 1007.8
20260505035537 46 350 0.0 1.0 0.00 0.00 0.00 79 1007.9
20260505032537 47 350 0.0 0.0 0.00 0.00 0.00 78 1008.0
20260505025537 47 350 0.0 1.0 0.00 0.00 0.00 78 1007.9
20260505015538 48 350 0.0 0.0 0.00 0.00 0.00 75 1008.4
20260505012538 49 350 0.0 0.0 0.00 0.00 0.00 74 1008.5
20260505005538 49 350 0.0 0.0 0.00 0.00 0.00 73 1008.8
20260505002538 50 350 0.0 1.0 0.00 0.00 0.00 72 1009.0
20260504235538 51 327 0.0 2.0 0.00 0.00 0.00 71 1009.3
20260504232538 52 50 0.0 0.0 0.00 0.00 0.00 68 1009.4
20260504225538 53 50 0.0 0.0 0.00 0.00 0.00 67 1009.7
20260504222538 54 50 0.0 0.0 0.00 0.00 0.00 65 1009.8
20260504215538 56 50 0.0 0.0 0.00 0.00 0.00 63 1009.8
20260504212538 58 47 0.0 1.0 0.00 0.00 0.00 58 1009.6
20260504205538 61 46 0.0 0.0 0.00 0.00 0.00 52 1009.7
20260504202539 63 46 0.0 1.0 0.00 0.00 0.00 48 1009.6
20260504195539 65 120 2.0 5.0 0.00 0.00 0.00 44 1009.5
20260504192539 66 101 2.0 4.0 0.00 0.00 0.00 44 1009.6
20260504185539 67 81 1.0 5.0 0.00 0.00 0.00 44 1009.8
20260504182539 69 79 1.0 3.0 0.00 0.00 0.00 43 1009.7
20260504175539 71 89 1.0 4.0 0.00 0.00 0.00 41 1009.6
20260504172539 73 58 2.0 4.0 0.00 0.00 0.00 38 1009.7